TimeCDT,TemperatureF,Dew PointF,Humidity,Sea Level PressureIn,VisibilityMPH,Wind Direction,Wind SpeedMPH,Gust SpeedMPH,PrecipitationIn,Events,Conditions,WindDirDegrees,DateUTC
12:53 AM,55.9,37.9,51,29.37,10.0,West,8.1,-,N/A,,Clear,260,2012-10-17 05:53:00
1:53 AM,51.1,37.9,61,29.36,10.0,West,8.1,-,N/A,,Clear,270,2012-10-17 06:53:00
2:53 AM,60.1,36.0,41,29.37,10.0,West,15.0,-,N/A,,Clear,280,2012-10-17 07:53:00
3:22 AM,66.2,35.6,32,29.53,10.0,NNW,40.3,52.9,0.00,Rain,Light Rain,340,2012-10-17 08:22:00
3:53 AM,64.9,37.9,37,29.42,10.0,NNW,31.1,46.0,0.00,,Clear,340,2012-10-17 08:53:00
4:53 AM,61.0,37.9,42,29.46,10.0,NNW,16.1,25.3,N/A,,Clear,340,2012-10-17 09:53:00
5:53 AM,59.0,37.0,44,29.50,10.0,NNW,15.0,-,N/A,,Clear,330,2012-10-17 10:53:00
6:53 AM,55.0,37.0,51,29.55,10.0,NW,10.4,-,N/A,,Clear,320,2012-10-17 11:53:00
7:53 AM,55.0,35.1,47,29.60,10.0,NW,11.5,-,N/A,,Clear,310,2012-10-17 12:53:00
8:53 AM,57.0,36.0,45,29.61,10.0,NNW,11.5,-,N/A,,Clear,340,2012-10-17 13:53:00
9:53 AM,60.1,37.0,42,29.68,10.0,North,23.0,29.9,N/A,,Clear,360,2012-10-17 14:53:00
10:53 AM,61.0,30.9,32,29.73,10.0,North,27.6,36.8,N/A,,Clear,360,2012-10-17 15:53:00
11:53 AM,63.0,30.0,29,29.75,10.0,North,28.8,40.3,N/A,,Clear,10,2012-10-17 16:53:00
12:53 PM,63.0,28.0,27,29.73,10.0,North,35.7,47.2,N/A,,Clear,360,2012-10-17 17:53:00
1:53 PM,64.0,26.1,24,29.78,10.0,North,25.3,38.0,N/A,,Clear,360,2012-10-17 18:53:00
2:53 PM,64.9,25.0,22,29.75,10.0,North,19.6,34.5,N/A,,Clear,360,2012-10-17 19:53:00
3:53 PM,64.9,23.0,20,29.73,10.0,North,18.4,28.8,N/A,,Clear,360,2012-10-17 20:53:00
4:53 PM,66.0,21.0,18,29.73,10.0,North,21.9,26.5,N/A,,Clear,360,2012-10-17 21:53:00
6:53 PM,60.1,21.0,22,29.78,10.0,NNE,11.5,-,N/A,,Clear,20,2012-10-17 23:53:00
7:53 PM,52.0,23.0,32,29.81,10.0,NNE,6.9,-,N/A,,Clear,30,2012-10-18 00:53:00
8:53 PM,52.0,23.0,32,29.83,10.0,Calm,Calm,-,N/A,,Clear,0,2012-10-18 01:53:00
9:53 PM,45.0,25.0,46,29.85,10.0,SSW,4.6,-,N/A,,Clear,210,2012-10-18 02:53:00
10:53 PM,44.1,25.0,47,29.87,10.0,SW,5.8,-,N/A,,Clear,220,2012-10-18 03:53:00
11:53 PM,42.1,26.1,53,29.89,10.0,Calm,Calm,-,N/A,,Clear,0,2012-10-18 04:53:00